sat.trackr.live / text

‹ back to catalog

COSMO-SKYMED 1

NORAD 31598 · 2007-023A

PAYLOAD ACTIVE UNKNOWN

§ Identity

Operator
Country
IT
Launch date
2007-06-08
Launch site
AFWTR
Launch vehicle
Mass (kg)
RCS (m²)
4.68

Purposes: earth_obs

External: N2YO · Heavens-Above · Gunter

§ Orbital elements

Epoch: 2026-09-19T23:09:14.464800Z

Period
96.16 min
Inclination
97.8839°
Eccentricity
0.0001800
Mean motion
14.97465005 rev/d
Perigee alt
573.5 km
Apogee alt
576.0 km
Semi-major
6,952.9 km
B*
1.5913e-4
RAAN
95.6446°
Arg perigee
82.8795°
Mean anomaly
277.2631°
Rev number
4,397

§ Raw data

COSMO-SKYMED 11 31598U 07023A   26262.96475075  .00001793  00000+0  15913-3 0  99902 31598  97.8839  95.6446 0001800  82.8795 277.2631 14.97465005 43976

JSON: /api/v1/satellites/31598 · /tle

For live sub-satellite position, see the globe view (requires WebGL).

§ Visibility from observer

Set your observer location to see the next 7 days of passes ≥ 10°. The values pass through the URL so the page stays shareable.

No JS? Fill the form by hand. The geolocation button needs JavaScript.

§ Radio — SatNOGS DB

ModeDescriptionDownlinkUplink
BPSK S-band telemetry 2.230 GHz

1 transmitter · refreshed weekly from db.satnogs.org